| time (UTC) | temp C | wind direction | speed KPH | gust KPH | rain 1hr cm | rain 24hr cm | rain mn cm | humidity % | barometer mb |
| 20260506192206 | 20 | 40 | 0.0 | 22.5 | 0.00 | 0.00 | 0.00 | 73 | 1009.2 |
| 20260506185204 | 20 | 135 | 3.2 | 20.9 | 0.00 | 0.00 | 0.00 | 74 | 1009.3 |
| 20260506182201 | 19 | 104 | 0.0 | 3.2 | 0.00 | 0.00 | 0.00 | 77 | 1009.7 |
| 20260506175156 | 20 | 104 | 0.0 | 8.0 | 0.00 | 0.00 | 0.00 | 73 | 1009.8 |
| 20260506172145 | 20 | 156 | 0.0 | 9.7 | 0.00 | 0.00 | 0.00 | 72 | 1009.9 |
| 20260506165148 | 20 | 77 | 0.0 | 20.9 | 0.00 | 0.00 | 0.00 | 73 | 1010.2 |
| 20260506162132 | 21 | 175 | 0.0 | 6.4 | 0.00 | 0.00 | 0.00 | 67 | 1010.6 |
| 20260506155122 | 21 | 358 | 0.0 | 4.8 | 0.00 | 0.00 | 0.00 | 65 | 1011.1 |
| 20260506152117 | 21 | 119 | 0.0 | 4.8 | 0.00 | 0.00 | 0.00 | 62 | 1011.2 |
| 20260506145108 | 22 | 358 | 0.0 | 6.4 | 0.00 | 0.00 | 0.00 | 57 | 1011.1 |
| 20260506142058 | 21 | 149 | 0.0 | 12.9 | 0.00 | 0.00 | 0.00 | 58 | 1011.2 |
| 20260506135052 | 21 | 126 | 0.0 | 12.9 | 0.00 | 0.00 | 0.00 | 59 | 1011.1 |
| 20260506132046 | 21 | 109 | 1.6 | 8.0 | 0.00 | 0.00 | 0.00 | 62 | 1011.1 |
| 20260506125045 | 20 | 167 | 0.0 | 11.3 | 0.00 | 0.00 | 0.00 | 64 | 1011.5 |
| 20260506122045 | 20 | 80 | 1.6 | 12.9 | 0.00 | 0.00 | 0.00 | 67 | 1011.4 |
| 20260506115044 | 19 | 358 | 0.0 | 8.0 | 0.00 | 0.00 | 0.00 | 69 | 1011.4 |
| 20260506112047 | 18 | 215 | 0.0 | 11.3 | 0.00 | 0.00 | 0.00 | 71 | 1011.3 |
| 20260506105045 | 18 | 222 | 0.0 | 3.2 | 0.00 | 0.00 | 0.00 | 72 | 1011.4 |
| 20260506102044 | 18 | 14 | 0.0 | 6.4 | 0.00 | 0.00 | 0.00 | 73 | 1011.4 |
| 20260506095044 | 18 | 18 | 0.0 | 16.1 | 0.00 | 0.00 | 0.00 | 73 | 1011.4 |
| 20260506092044 | 18 | 157 | 1.6 | 12.9 | 0.00 | 0.00 | 0.00 | 73 | 1011.3 |
| 20260506085044 | 19 | 160 | 0.0 | 6.4 | 0.00 | 0.00 | 0.00 | 73 | 1011.3 |
| 20260506082044 | 19 | 135 | 0.0 | 6.4 | 0.00 | 0.00 | 0.00 | 73 | 1011.6 |
| 20260506072024 | 20 | 82 | 0.0 | 9.7 | 0.00 | 0.00 | 0.00 | 71 | 1011.6 |
| 20260506062002 | 20 | 196 | 0.0 | 4.8 | 0.00 | 0.00 | 0.00 | 70 | 1011.7 |
| 20260506044941 | 21 | 115 | 0.0 | 9.7 | 0.00 | 0.00 | 0.00 | 66 | 1012.3 |
| 20260506041938 | 20 | 217 | 0.0 | 17.7 | 0.00 | 0.00 | 0.00 | 65 | 1012.3 |
| 20260506034929 | 21 | 144 | 0.0 | 12.9 | 0.00 | 0.00 | 0.00 | 64 | 1012.3 |
| 20260506031925 | 21 | 170 | 1.6 | 9.7 | 0.00 | 0.00 | 0.00 | 62 | 1012.2 |
| 20260506024901 | 21 | 150 | 1.6 | 14.5 | 0.00 | 0.00 | 0.00 | 59 | 1012.3 |
| 20260506021857 | 21 | 90 | 1.6 | 14.5 | 0.00 | 0.00 | 0.00 | 56 | 1012.2 |
| 20260506014853 | 22 | 158 | 1.6 | 14.5 | 0.00 | 0.00 | 0.00 | 54 | 1012.0 |
| 20260506011853 | 22 | 184 | 0.0 | 16.1 | 0.00 | 0.00 | 0.00 | 54 | 1011.8 |
| 20260506004844 | 22 | 143 | 1.6 | 12.9 | 0.00 | 0.00 | 0.00 | 52 | 1011.5 |
| 20260506001835 | 23 | 116 | 0.0 | 11.3 | 0.00 | 0.00 | 0.00 | 46 | 1011.1 |
| 20260505234827 | 25 | 226 | 0.0 | 9.7 | 0.00 | 0.00 | 0.00 | 40 | 1011.0 |
| 20260505231820 | 26 | 67 | 0.0 | 17.7 | 0.00 | 0.00 | 0.00 | 35 | 1010.6 |
| 20260505224815 | 27 | 340 | 0.0 | 29.0 | 0.00 | 0.00 | 0.00 | 34 | 1010.5 |
| 20260505221810 | 27 | 142 | 6.4 | 29.0 | 0.00 | 0.00 | 0.00 | 32 | 1010.6 |
| 20260505214809 | 28 | 135 | 3.2 | 29.0 | 0.00 | 0.00 | 0.00 | 30 | 1010.5 |
| 20260505211804 | 28 | 180 | 0.0 | 24.1 | 0.00 | 0.00 | 0.00 | 28 | 1010.1 |
| 20260505204759 | 29 | 161 | 0.0 | 24.1 | 0.00 | 0.00 | 0.00 | 24 | 1010.0 |
| 20260505201754 | 30 | 80 | 4.8 | 25.7 | 0.00 | 0.00 | 0.00 | 22 | 1009.8 |
| 20260505194745 | 30 | 150 | 1.6 | 17.7 | 0.00 | 0.00 | 0.00 | 25 | 1010.1 |